DG1ROH Weather Reports


time (UTC)temp
F
wind
direction
speed
knots
gust
knots
rain 1hr
in
rain 24hr
in
rain mn
in
humidity
%
barometer
mb
20260507035414 44 88 1.7 5.2 0.00 0.57 0.00 89 1010.3
20260507035214 44 31 1.7 6.1 0.00 0.57 0.00 89 1010.2
20260507035014 44 66 1.7 6.1 0.00 0.58 0.00 89 1010.2
20260507034813 44 42 0.9 6.1 0.00 0.59 0.00 89 1010.2
20260507034614 44 40 1.7 6.1 0.00 0.59 0.00 88 1010.2
20260507034413 44 76 1.7 6.1 0.00 0.60 0.00 89 1010.2
20260507034214 44 338 1.7 5.2 0.00 0.61 0.00 89 1010.2
20260507034013 44 29 1.7 5.2 0.00 0.61 0.00 88 1010.2
20260507033814 44 31 1.7 5.2 0.00 0.62 0.00 88 1010.2
20260507033614 44 44 2.6 7.0 0.00 0.62 0.00 88 1010.1
20260507033418 44 31 2.6 7.0 0.00 0.63 0.00 88 1010.1
20260507033216 44 67 2.6 7.0 0.00 0.64 0.00 88 1010.1
20260507033014 44 55 2.6 7.0 0.00 0.64 0.00 88 1010.1
20260507032813 44 34 2.6 7.0 0.00 0.65 0.00 88 1010.1
20260507032614 44 35 1.7 7.0 0.00 0.65 0.00 88 1010.0
20260507032413 44 53 1.7 7.0 0.00 0.65 0.00 88 1010.1
20260507032214 44 32 1.7 7.0 0.00 0.66 0.00 88 1010.0
20260507032013 44 17 1.7 7.0 0.00 0.67 0.00 88 1010.2
20260507031814 44 79 1.7 7.0 0.00 0.68 0.00 88 1010.1
20260507031614 44 46 1.7 7.0 0.00 0.69 0.00 88 1010.1
20260507031414 44 75 0.9 4.3 0.00 0.69 0.00 88 1010.1
20260507031214 44 105 0.9 4.3 0.00 0.70 0.00 88 1010.1
20260507031013 44 39 1.7 7.0 0.00 0.71 0.00 88 1010.1
20260507030813 45 53 1.7 7.0 0.00 0.72 0.00 88 1010.1
20260507030614 44 304 1.7 7.0 0.00 0.73 0.00 88 1010.1
20260507030414 44 49 2.6 7.0 0.00 0.74 0.00 88 1010.1
20260507030214 44 45 2.6 7.0 0.00 0.75 0.00 88 1010.1
20260507030013 44 75 2.6 6.1 0.00 0.76 0.00 88 1010.0
20260507025814 44 44 2.6 6.1 0.00 0.76 0.00 88 1010.0
20260507025614 44 60 2.6 7.8 0.00 0.77 0.00 88 1010.0
20260507025413 45 36 2.6 7.8 0.00 0.77 0.00 88 1010.0
20260507025214 45 70 1.7 7.8 0.00 0.78 0.00 88 1009.9
20260507025013 45 49 1.7 7.8 0.00 0.79 0.00 88 1009.9
20260507024814 45 55 1.7 7.8 0.00 0.79 0.00 88 1010.0
20260507024613 45 79 1.7 4.3 0.00 0.80 0.00 88 1009.9
20260507024413 45 32 1.7 4.3 0.00 0.80 0.00 88 1009.9
20260507024213 45 5 1.7 4.3 0.00 0.80 0.00 88 1010.0
20260507024013 45 5 1.7 4.3 0.00 0.81 0.00 88 1009.9
20260507023814 45 49 1.7 4.3 0.00 0.82 0.00 88 1009.9
20260507023614 45 0 1.7 4.3 0.00 0.82 0.00 88 1009.9
20260507023413 45 346 1.7 4.3 0.00 0.83 0.00 87 1010.0
20260507023214 45 57 1.7 4.3 0.00 0.83 0.00 87 1009.9
20260507023013 45 89 1.7 4.3 0.00 0.83 0.00 87 1009.9
20260507022814 45 62 2.6 10.4 0.00 0.84 0.00 87 1009.9
20260507022613 45 59 2.6 10.4 0.00 0.84 0.00 87 1009.9
20260507022414 45 59 2.6 10.4 0.00 0.85 0.00 87 1009.9
20260507022214 45 49 2.6 10.4 0.00 0.85 0.00 87 1010.0
20260507022013 45 18 2.6 10.4 0.00 0.86 0.00 87 1009.9
20260507021816 45 301 2.6 7.8 0.00 0.86 0.00 87 1009.9
20260507021616 45 333 2.6 7.8 0.00 0.87 0.00 87 1010.0
20260507021416 45 355 2.6 7.0 0.00 0.87 0.00 87 1010.0
20260507021216 45 61 2.6 7.0 0.00 0.87 0.00 87 1009.9
20260507021016 45 42 2.6 7.0 0.00 0.87 0.00 87 1009.9
20260507020817 45 49 1.7 6.1 0.00 0.87 0.00 87 1009.9
20260507020615 45 28 1.7 4.3 0.00 0.88 0.00 88 1009.9
20260507020426 45 15 1.7 5.2 0.00 0.88 0.00 88 1009.8
20260507020212 45 56 1.7 5.2 0.00 0.88 0.00 88 1009.9
20260507020011 45 0 1.7 5.2 0.00 0.89 0.00 88 1009.8
20260507015809 45 30 1.7 5.2 0.00 0.89 0.00 88 1009.9
20260507015607 45 44 1.7 5.2 0.00 0.90 0.00 88 1009.9
20260507015404 45 28 1.7 4.3 0.00 0.90 0.00 88 1009.9
20260507015204 45 35 0.9 4.3 0.00 0.91 0.00 88 1009.9
20260507015004 45 42 1.7 4.3 0.00 0.91 0.00 88 1009.9
20260507014803 45 42 1.7 4.3 0.00 0.91 0.00 88 1009.9
20260507014602 45 54 1.7 4.3 0.00 0.91 0.00 88 1010.0
20260507014413 45 54 1.7 4.3 0.00 0.91 0.00 88 1009.8
20260507014200 45 39 1.7 4.3 0.00 0.91 0.00 87 1009.8
20260507014000 45 15 1.7 4.3 0.00 0.91 0.00 88 1009.8
20260507013755 45 48 1.7 5.2 0.00 0.92 0.00 87 1009.7
20260507013555 45 51 1.7 5.2 0.00 0.92 0.00 87 1009.8
20260507013350 45 61 1.7 5.2 0.00 0.92 0.00 87 1009.7
20260507013150 45 56 1.7 7.0 0.00 0.92 0.00 87 1009.6
20260507012947 45 55 1.7 7.0 0.00 0.93 0.00 87 1009.6
20260507012751 45 301 1.7 7.0 0.00 0.93 0.00 87 1009.6
20260507012546 45 344 1.7 7.0 0.00 0.93 0.00 87 1009.7
20260507012345 45 355 1.7 7.0 0.00 0.93 0.00 87 1009.7
20260507012146 45 22 1.7 7.0 0.00 0.93 0.00 87 1009.7
20260507011946 44 5 1.7 7.0 0.00 0.94 0.00 87 1009.7
20260507011745 45 18 1.7 7.0 0.00 0.94 0.00 87 1009.7
20260507011539 45 5 1.7 7.0 0.00 0.94 0.00 87 1009.7
20260507011339 45 5 1.7 7.0 0.00 0.94 0.00 87 1009.7
20260507011137 45 29 1.7 7.0 0.00 0.94 0.00 87 1009.6
20260507010935 45 25 1.7 7.0 0.00 0.94 0.00 87 1009.6
20260507010735 45 9 1.7 7.0 0.00 0.94 0.00 87 1009.5
20260507010536 45 79 2.6 7.8 0.00 0.94 0.00 87 1009.5
20260507010333 44 88 2.6 7.8 0.00 0.94 0.00 87 1009.5
20260507010133 44 345 2.6 7.8 0.00 0.94 0.00 87 1009.4
20260507005935 44 82 2.6 7.8 0.00 0.94 0.00 88 1009.4
20260507005733 44 34 2.6 7.8 0.00 0.94 0.00 88 1009.4
20260507005532 44 47 1.7 5.2 0.00 0.94 0.00 88 1009.4
20260507005334 44 350 1.7 5.2 0.00 0.94 0.00 88 1009.4
20260507005133 44 55 1.7 5.2 0.00 0.94 0.00 87 1009.4
20260507004932 44 49 1.7 5.2 0.00 0.94 0.00 88 1009.3
20260507004731 44 41 1.7 5.2 0.00 0.94 0.00 88 1009.3
20260507004532 44 327 1.7 5.2 0.00 0.94 0.00 88 1009.3
20260507004331 44 50 1.7 7.0 0.00 0.95 0.00 88 1009.3
20260507004132 44 5 1.7 7.0 0.00 0.95 0.00 88 1009.3
20260507003928 44 5 1.7 7.0 0.00 0.95 0.00 88 1009.2
20260507003727 44 34 1.7 7.0 0.00 0.95 0.00 88 1009.2
20260507003527 44 37 1.7 7.0 0.00 0.95 0.00 88 1009.3
20260507003326 44 57 1.7 7.0 0.00 0.95 0.00 88 1009.2
20260507003123 44 63 1.7 7.0 0.00 0.95 0.00 88 1009.3
20260507002924 44 51 1.7 5.2 0.00 0.95 0.00 88 1009.2
20260507002723 44 93 1.7 8.7 0.00 0.95 0.00 88 1009.3
20260507002523 44 38 2.6 8.7 0.00 0.95 0.00 87 1009.3
20260507002322 44 26 1.7 8.7 0.00 0.95 0.00 87 1009.2
20260507002121 44 28 1.7 8.7 0.00 0.95 0.00 87 1009.3
20260507001922 44 30 1.7 8.7 0.00 0.95 0.00 88 1009.3
20260507001721 44 61 1.7 9.6 0.00 0.95 0.00 87 1009.2
20260507001522 44 325 1.7 9.6 0.00 0.95 0.00 88 1009.2
20260507001321 44 326 1.7 9.6 0.00 0.95 0.00 87 1009.3
20260507001121 44 69 1.7 9.6 0.00 0.95 0.00 87 1009.3
20260507000919 44 113 1.7 9.6 0.00 0.95 0.00 87 1009.3
20260507000720 44 63 1.7 7.0 0.00 0.95 0.00 87 1009.3
20260507000519 44 57 1.7 6.1 0.00 0.95 0.00 87 1009.3
20260507000317 44 41 1.7 7.0 0.00 0.95 0.00 87 1009.4
20260507000117 44 38 2.6 10.4 0.00 0.95 0.00 87 1009.3
20260506235915 44 66 2.6 10.4 0.00 0.95 0.00 87 1009.3
20260506235713 44 66 3.5 10.4 0.00 0.95 0.00 87 1009.4
20260506235514 44 74 3.5 10.4 0.00 0.95 0.00 87 1009.4
20260506235315 44 49 3.5 10.4 0.00 0.95 0.00 87 1009.4
20260506235114 44 57 3.5 10.4 0.00 0.95 0.00 87 1009.3
20260506234912 44 67 4.3 8.7 0.00 0.95 0.00 87 1009.2
20260506234706 44 5 4.3 8.7 0.00 0.95 0.00 87 1009.3
20260506234506 44 91 4.3 8.7 0.00 0.95 0.00 87 1009.2
20260506234305 44 50 3.5 8.7 0.00 0.95 0.00 87 1009.3
20260506234106 44 39 4.3 8.7 0.00 0.95 0.00 87 1009.3
20260506233906 44 21 3.5 8.7 0.00 0.95 0.00 87 1009.3
20260506233709 44 57 3.5 8.7 0.00 0.95 0.00 87 1009.4
20260506233504 44 30 3.5 9.6 0.00 0.95 0.00 87 1009.3
20260506233303 44 71 2.6 9.6 0.00 0.95 0.00 87 1009.4
20260506233104 44 71 2.6 9.6 0.00 0.95 0.00 87 1009.4
20260506232904 44 355 2.6 9.6 0.00 0.95 0.00 88 1009.4
20260506232705 44 53 2.6 10.4 0.00 0.95 0.00 87 1009.5
20260506232503 44 101 3.5 10.4 0.00 0.95 0.00 88 1009.4
20260506232306 44 34 3.5 10.4 0.00 0.95 0.00 87 1009.4
20260506232117 44 59 4.3 10.4 0.00 0.95 0.00 87 1009.4
20260506231904 44 38 4.3 10.4 0.00 0.95 0.00 87 1009.4
20260506231704 44 78 4.3 10.4 0.00 0.95 0.00 88 1009.4
20260506231503 44 53 4.3 13.0 0.00 0.95 0.00 88 1009.3
20260506231316 44 25 3.5 13.0 0.00 0.95 0.00 88 1009.3
20260506231104 44 42 3.5 13.0 0.00 0.95 0.00 88 1009.3
20260506230904 44 351 3.5 13.0 0.00 0.95 0.00 88 1009.3
20260506230703 45 74 3.5 13.0 0.00 0.95 0.00 88 1009.3
20260506230503 45 21 3.5 8.7 0.00 0.95 0.00 88 1009.3
20260506230304 45 11 3.5 8.7 0.00 0.95 0.00 88 1009.2
20260506230104 45 86 3.5 8.7 0.00 0.95 0.00 88 1009.2
20260506225904 45 42 3.5 9.6 0.00 0.95 0.00 88 1009.1
20260506225703 45 35 3.5 9.6 0.00 0.95 0.00 88 1009.1
20260506225504 45 33 3.5 9.6 0.00 0.95 0.00 88 1009.1
20260506225305 45 56 3.5 9.6 0.00 0.95 0.00 88 1009.1
20260506225103 45 5 3.5 9.6 0.00 0.95 0.00 88 1009.1
20260506224903 45 86 3.5 9.6 0.00 0.95 0.00 88 1009.1
20260506224704 45 323 3.5 9.6 0.00 0.95 0.00 88 1009.1
20260506224504 45 32 2.6 9.6 0.00 0.95 0.00 88 1009.1
20260506224304 45 30 2.6 9.6 0.00 0.95 0.00 88 1009.1
20260506224103 45 74 2.6 9.6 0.00 0.95 0.00 88 1009.0
20260506223903 45 17 2.6 9.6 0.00 0.95 0.00 88 1009.0
20260506223704 45 5 2.6 7.0 0.00 0.95 0.00 88 1008.9
20260506223504 46 79 2.6 7.8 0.00 0.95 0.00 88 1008.8
20260506223303 46 57 3.5 7.8 0.00 0.95 0.00 89 1008.9
20260506223103 46 23 3.5 8.7 0.00 0.95 0.00 89 1008.9
20260506222904 46 69 2.6 8.7 0.00 0.95 0.00 89 1008.9
20260506222703 46 355 2.6 8.7 0.00 0.95 0.00 88 1008.9
20260506222517 46 25 2.6 8.7 0.00 0.95 0.00 88 1008.9
20260506222306 46 72 2.6 8.7 0.00 0.95 0.00 88 1008.9
20260506222104 46 69 2.6 7.0 0.00 0.95 0.00 88 1008.8
20260506221904 46 323 2.6 8.7 0.00 0.95 0.00 88 1008.9
20260506221703 46 51 2.6 8.7 0.00 0.95 0.00 88 1008.9
20260506221502 46 17 2.6 8.7 0.00 0.95 0.00 88 1009.0
20260506221301 46 9 2.6 8.7 0.00 0.95 0.00 88 1008.9
20260506221101 46 0 2.6 8.7 0.00 0.95 0.00 88 1008.9
20260506220901 47 34 2.6 8.7 0.00 0.95 0.00 88 1009.1
20260506220701 47 10 2.6 8.7 0.00 0.95 0.00 88 1008.9
20260506220501 47 40 2.6 8.7 0.00 0.95 0.00 88 1008.9
20260506220301 47 350 2.6 8.7 0.00 0.95 0.00 88 1008.9
20260506220109 47 36 2.6 8.7 0.00 0.95 0.00 88 1008.9
20260506215859 47 325 2.6 8.7 0.00 0.95 0.95 88 1008.9
20260506215700 47 63 2.6 8.7 0.00 0.95 0.95 88 1008.9
20260506215459 47 342 3.5 8.7 0.00 0.95 0.95 88 1008.9
20260506215300 47 71 3.5 8.7 0.00 0.95 0.95 88 1009.0
20260506215059 47 28 2.6 10.4 0.00 0.95 0.95 88 1008.9
20260506214900 47 76 2.6 10.4 0.00 0.95 0.95 88 1008.8
20260506214659 47 13 2.6 10.4 0.00 0.95 0.95 88 1008.8
20260506214459 48 74 2.6 10.4 0.00 0.95 0.95 88 1008.8
20260506214300 48 84 2.6 10.4 0.00 0.95 0.95 88 1008.7
20260506214100 48 346 2.6 7.8 0.00 0.95 0.95 88 1008.8
20260506213900 48 42 2.6 7.8 0.00 0.95 0.95 88 1008.8
20260506213659 48 58 3.5 7.8 0.00 0.95 0.95 88 1008.8
20260506213459 48 46 2.6 8.7 0.00 0.95 0.95 88 1008.7
20260506213300 48 58 3.5 8.7 0.00 0.95 0.95 88 1008.7
20260506213059 49 52 3.5 9.6 0.00 0.95 0.95 88 1008.6
20260506212900 49 355 3.5 9.6 0.00 0.95 0.95 88 1008.7
20260506212659 49 24 3.5 9.6 0.00 0.95 0.95 88 1008.7
20260506212459 49 72 3.5 9.6 0.00 0.95 0.95 88 1008.8
20260506212300 49 24 2.6 9.6 0.00 0.95 0.95 88 1008.8
20260506212100 49 34 2.6 7.8 0.00 0.95 0.95 88 1008.6
20260506211859 49 46 1.7 7.8 0.00 0.95 0.95 88 1008.6
20260506211700 49 19 1.7 7.0 0.00 0.95 0.95 88 1008.6
20260506211455 49 355 1.7 8.7 0.00 0.95 0.95 89 1008.6
20260506211255 49 38 2.6 8.7 0.00 0.95 0.95 89 1008.6
20260506211056 49 61 2.6 8.7 0.00 0.95 0.95 89 1008.6
20260506210853 49 5 2.6 8.7 0.00 0.95 0.95 89 1008.5
20260506210652 49 80 1.7 8.7 0.00 0.95 0.95 89 1008.5
20260506210452 49 54 1.7 7.0 0.00 0.95 0.95 89 1008.5
20260506210251 49 272 1.7 7.0 0.00 0.95 0.95 89 1008.6
20260506210051 49 347 1.7 7.0 0.00 0.95 0.95 89 1008.5
20260506205852 49 13 1.7 7.0 0.00 0.95 0.95 89 1008.4
20260506205652 49 340 1.7 7.0 0.00 0.95 0.95 89 1008.5
20260506205451 49 20 1.7 7.0 0.00 0.95 0.95 89 1008.5
20260506205251 49 61 1.7 7.0 0.00 0.95 0.95 90 1008.4
20260506205052 49 0 1.7 7.0 0.00 0.95 0.95 90 1008.4
20260506204851 49 355 1.7 7.0 0.00 0.95 0.95 90 1008.3
20260506204652 49 350 1.7 7.0 0.00 0.95 0.95 89 1008.3
20260506204450 49 15 0.9 7.0 0.00 0.95 0.95 89 1008.4
20260506204247 49 9 0.9 7.0 0.00 0.95 0.95 89 1008.4
20260506204048 50 33 0.9 4.3 0.00 0.95 0.95 90 1008.4
20260506203846 50 42 0.9 4.3 0.00 0.95 0.95 90 1008.3
20260506203645 50 45 1.7 7.0 0.00 0.95 0.95 90 1008.3
20260506203445 50 52 1.7 7.0 0.00 0.95 0.95 89 1008.3
20260506203245 50 52 1.7 7.0 0.00 0.95 0.95 89 1008.3
20260506203046 50 16 1.7 7.0 0.00 0.95 0.95 90 1008.4
20260506202846 50 65 1.7 7.0 0.00 0.95 0.95 89 1008.3
20260506202645 50 53 1.7 6.1 0.00 0.95 0.95 90 1008.4
20260506202445 50 15 1.7 3.5 0.00 0.95 0.95 90 1008.5
20260506202243 50 11 1.7 3.5 0.00 0.95 0.95 90 1008.4
20260506202042 50 342 1.7 3.5 0.00 0.95 0.95 90 1008.3
20260506201842 50 40 1.7 3.5 0.00 0.95 0.95 90 1008.4
20260506201641 50 32 1.7 3.5 0.00 0.95 0.95 90 1008.4
20260506201441 50 28 1.7 3.5 0.00 0.95 0.95 90 1008.4
20260506201241 50 31 1.7 3.5 0.00 0.95 0.95 90 1008.3
20260506201039 50 30 1.7 7.0 0.00 0.95 0.95 90 1008.3
20260506200840 50 30 1.7 7.0 0.00 0.95 0.95 90 1008.3
20260506200638 50 12 1.7 7.0 0.00 0.95 0.95 90 1008.2
20260506200435 50 355 1.7 7.0 0.00 0.95 0.95 90 1008.2
20260506200236 50 15 1.7 7.0 0.00 0.95 0.95 90 1008.1
20260506200033 50 50 1.7 5.2 0.00 0.95 0.95 90 1008.1
20260506195832 50 5 1.7 5.2 0.00 0.95 0.95 90 1007.9
20260506195631 50 11 1.7 4.3 0.00 0.95 0.95 91 1008.0
20260506195432 50 5 1.7 4.3 0.00 0.95 0.95 90 1007.9
20260506195232 50 49 0.9 4.3 0.00 0.95 0.95 90 1007.9
20260506195032 50 44 0.9 3.5 0.00 0.95 0.95 91 1007.9
20260506194831 50 81 0.9 3.5 0.00 0.95 0.95 91 1008.0
20260506194632 50 27 0.9 3.5 0.00 0.95 0.95 91 1008.0
20260506194432 50 24 1.7 3.5 0.00 0.95 0.95 90 1007.9
20260506194231 50 23 1.7 3.5 0.00 0.95 0.95 90 1008.0
20260506194031 50 44 0.9 3.5 0.00 0.95 0.95 90 1007.9
20260506193832 50 48 0.9 3.5 0.00 0.95 0.95 90 1007.9
20260506193632 50 37 0.9 3.5 0.00 0.95 0.95 90 1007.9
20260506193432 50 17 0.0 3.5 0.00 0.95 0.95 90 1007.9
20260506193232 50 57 0.0 2.6 0.00 0.95 0.95 90 1007.9
20260506193031 50 60 0.9 3.5 0.00 0.95 0.95 90 1008.0
20260506192830 50 60 0.9 3.5 0.00 0.95 0.95 90 1008.0
20260506192629 50 60 0.9 3.5 0.00 0.95 0.95 90 1007.9
20260506192429 50 60 0.9 3.5 0.00 0.95 0.95 90 1007.9
20260506192229 50 61 0.9 3.5 0.00 0.95 0.95 90 1007.9
20260506192029 50 10 0.9 5.2 0.00 0.95 0.95 90 1007.9
20260506191829 50 44 1.7 5.2 0.00 0.95 0.95 90 1007.8
20260506191627 50 40 1.7 6.1 0.00 0.95 0.95 90 1007.7
20260506191427 50 56 1.7 7.8 0.00 0.95 0.95 90 1007.7
20260506191225 50 57 2.6 7.8 0.00 0.95 0.95 90 1007.7
20260506191023 50 5 2.6 7.8 0.00 0.95 0.95 90 1007.7
20260506190824 50 355 2.6 7.8 0.00 0.95 0.95 90 1007.6
20260506190624 50 24 2.6 7.8 0.00 0.95 0.95 90 1007.5
20260506190424 50 25 2.6 7.8 0.00 0.95 0.95 90 1007.6
20260506190223 50 29 2.6 7.8 0.00 0.95 0.95 90 1007.4
20260506190023 50 28 2.6 7.8 0.00 0.95 0.95 90 1007.5
20260506185823 50 55 2.6 8.7 0.00 0.95 0.95 90 1007.4
20260506185623 50 90 2.6 8.7 0.00 0.95 0.95 90 1007.5
20260506185423 50 13 1.7 8.7 0.00 0.95 0.95 90 1007.5
20260506185221 50 40 1.7 8.7 0.00 0.95 0.95 90 1007.4
20260506185019 50 23 1.7 8.7 0.00 0.95 0.95 90 1007.5
20260506184820 50 34 1.7 4.3 0.00 0.95 0.95 90 1007.5
20260506184619 50 28 1.7 4.3 0.00 0.95 0.95 90 1007.5
20260506184417 50 15 1.7 4.3 0.00 0.95 0.95 90 1007.5
20260506184216 50 78 1.7 4.3 0.00 0.95 0.95 90 1007.6
20260506184016 50 347 1.7 4.3 0.00 0.95 0.95 90 1007.5
20260506183813 50 56 1.7 4.3 0.00 0.95 0.95 90 1007.5
20260506183611 50 21 1.7 7.0 0.00 0.95 0.95 90 1007.5
20260506183411 50 59 1.7 7.0 0.00 0.95 0.95 90 1007.4
20260506183211 50 341 1.7 7.0 0.00 0.95 0.95 90 1007.3
20260506183011 50 15 2.6 7.0 0.00 0.95 0.95 89 1007.3
20260506182806 51 54 1.7 7.0 0.00 0.95 0.95 89 1007.3
20260506182606 51 57 1.7 5.2 0.00 0.95 0.95 89 1007.3
20260506182406 51 16 1.7 5.2 0.00 0.95 0.95 89 1007.3
20260506182205 51 0 1.7 6.1 0.00 0.95 0.95 89 1007.3
20260506182017 51 330 1.7 6.1 0.00 0.95 0.95 89 1007.2
20260506181805 51 55 1.7 6.1 0.00 0.95 0.95 89 1007.2
20260506181605 51 355 1.7 6.1 0.00 0.95 0.95 89 1007.2
20260506181405 51 57 1.7 6.1 0.00 0.95 0.95 89 1007.2
20260506181206 51 355 1.7 6.1 0.00 0.95 0.95 90 1007.2
20260506181006 51 0 1.7 6.1 0.00 0.95 0.95 90 1007.2
20260506180806 51 355 2.6 6.1 0.00 0.95 0.95 90 1007.2
20260506180605 51 19 2.6 7.0 0.00 0.95 0.95 89 1007.1
20260506180405 51 44 2.6 7.0 0.00 0.95 0.95 89 1007.2
20260506180206 51 25 2.6 7.0 0.00 0.95 0.95 89 1007.1
20260506180006 51 341 2.6 7.0 0.00 0.95 0.95 89 1007.0
20260506175805 51 10 2.6 7.8 0.00 0.95 0.95 90 1007.1
20260506175604 51 48 2.6 7.8 0.00 0.95 0.95 90 1007.0
20260506175405 51 26 2.6 7.8 0.00 0.95 0.95 89 1007.0
20260506175205 51 34 2.6 7.8 0.00 0.95 0.95 90 1007.1
20260506175005 51 42 2.6 7.8 0.00 0.95 0.95 90 1007.1
20260506174805 51 19 2.6 6.1 0.00 0.95 0.95 90 1007.0
20260506174604 51 82 2.6 6.1 0.00 0.95 0.95 90 1007.1
20260506174405 51 88 2.6 6.1 0.00 0.95 0.95 90 1007.1
20260506174205 51 49 1.7 6.1 0.00 0.95 0.95 90 1007.0
20260506174004 51 78 1.7 6.1 0.00 0.95 0.95 90 1007.1
20260506173805 51 65 1.7 6.1 0.00 0.95 0.95 90 1007.1
20260506173606 51 322 1.7 4.3 0.00 0.95 0.95 90 1007.0
20260506173405 51 9 1.7 4.3 0.00 0.95 0.95 90 1007.0
20260506173204 51 25 2.6 4.3 0.00 0.95 0.95 90 1007.0
20260506173003 51 43 2.6 7.0 0.00 0.95 0.95 90 1007.0
20260506172803 51 48 2.6 7.0 0.00 0.95 0.95 90 1007.1
20260506172602 51 17 1.7 7.0 0.00 0.95 0.95 90 1007.1
20260506172402 51 50 1.7 7.0 0.00 0.95 0.95 90 1007.1
20260506172203 51 29 1.7 7.0 0.00 0.95 0.95 90 1007.0
20260506172003 51 49 1.7 5.2 0.00 0.95 0.95 90 1007.0
20260506171803 51 5 1.7 3.5 0.00 0.95 0.95 90 1007.0
20260506171602 51 51 1.7 4.3 0.00 0.95 0.95 90 1007.0
20260506171402 51 55 1.7 4.3 0.00 0.95 0.95 90 1007.0
20260506171201 51 56 1.7 4.3 0.00 0.95 0.95 90 1007.0
20260506171001 51 62 1.7 4.3 0.00 0.95 0.95 90 1007.0
20260506170801 51 44 1.7 6.1 0.00 0.95 0.95 90 1007.0
20260506170601 51 49 1.7 6.1 0.00 0.95 0.95 90 1006.8
20260506170401 51 106 1.7 6.1 0.00 0.95 0.95 90 1006.9
20260506170201 51 54 1.7 6.1 0.00 0.95 0.95 90 1006.8
20260506170001 51 355 1.7 6.1 0.00 0.95 0.95 90 1006.8
20260506165802 51 67 1.7 5.2 0.00 0.95 0.95 90 1006.8
20260506165601 51 30 2.6 5.2 0.00 0.95 0.95 90 1007.0
20260506165359 51 58 1.7 5.2 0.00 0.95 0.95 90 1007.0
20260506165159 51 57 1.7 5.2 0.00 0.95 0.95 89 1007.0
20260506164959 51 50 1.7 5.2 0.00 0.95 0.95 89 1007.0
20260506164759 52 49 1.7 6.1 0.00 0.95 0.95 90 1006.9
20260506164559 52 34 1.7 6.1 0.00 0.95 0.95 89 1007.0
20260506164359 52 68 1.7 6.1 0.00 0.95 0.95 89 1007.0
20260506164159 52 0 1.7 6.1 0.00 0.95 0.95 89 1007.0
20260506163959 52 348 1.7 6.1 0.00 0.95 0.95 89 1006.9
20260506163758 52 17 1.7 3.5 0.00 0.95 0.95 89 1007.0
20260506163555 52 0 1.7 4.3 0.00 0.95 0.95 89 1007.0
20260506163356 52 42 1.7 7.0 0.00 0.95 0.95 89 1007.0
20260506163155 52 53 1.7 7.8 0.00 0.95 0.95 89 1006.9
20260506162955 52 42 1.7 7.8 0.00 0.95 0.95 90 1006.9
20260506162756 52 355 1.7 7.8 0.00 0.95 0.95 89 1006.9
20260506162555 52 49 1.7 7.8 0.00 0.95 0.95 89 1006.9
20260506162355 52 349 1.7 7.8 0.00 0.95 0.95 89 1006.8
20260506162155 52 89 1.7 8.7 0.00 0.95 0.95 90 1006.8
20260506161955 52 5 2.6 8.7 0.00 0.95 0.95 90 1006.8
20260506161753 52 5 2.6 8.7 0.00 0.95 0.95 89 1006.8
20260506161553 52 61 2.6 8.7 0.00 0.95 0.95 89 1006.7
20260506161353 52 78 2.6 8.7 0.00 0.95 0.95 89 1006.7
20260506161153 52 49 2.6 7.8 0.00 0.95 0.95 89 1006.7
20260506160954 52 49 2.6 7.8 0.00 0.95 0.95 89 1006.8
20260506160753 52 43 2.6 7.8 0.00 0.95 0.95 89 1006.7
20260506160551 52 325 2.6 7.0 0.00 0.95 0.95 89 1006.7
20260506160350 52 48 1.7 5.2 0.00 0.95 0.95 89 1006.8
20260506160149 52 24 1.7 5.2 0.00 0.95 0.95 90 1006.8
20260506155947 52 24 2.6 7.8 0.00 0.95 0.95 90 1006.8
20260506155747 52 33 2.6 7.8 0.00 0.95 0.95 89 1006.9
20260506155547 52 35 2.6 7.8 0.00 0.95 0.95 89 1006.9
20260506155347 52 22 1.7 7.8 0.00 0.95 0.95 89 1006.9
20260506155141 53 5 1.7 7.8 0.00 0.95 0.95 89 1006.9
20260506154943 53 24 1.7 4.3 0.00 0.95 0.95 89 1006.9
20260506154741 53 38 1.7 4.3 0.00 0.95 0.95 90 1006.9
20260506154541 53 65 1.7 4.3 0.00 0.95 0.95 90 1007.0
20260506154341 53 28 2.6 7.8 0.00 0.95 0.95 89 1006.9
20260506154141 53 0 2.6 7.8 0.00 0.95 0.95 89 1006.9
20260506153941 53 38 2.6 7.8 0.00 0.95 0.95 89 1006.8
20260506153740 53 49 2.6 7.8 0.00 0.95 0.95 89 1007.0
20260506153545 53 9 2.6 7.8 0.00 0.95 0.95 90 1006.9
20260506153345 53 62 1.7 6.1 0.00 0.95 0.95 90 1006.9
20260506153144 53 326 1.7 5.2 0.00 0.95 0.95 90 1006.8
20260506152939 53 342 1.7 5.2 0.00 0.95 0.95 90 1006.7
20260506152737 53 20 1.7 5.2 0.00 0.95 0.95 90 1006.7
20260506152535 53 11 1.7 6.1 0.00 0.95 0.95 90 1006.7
20260506152335 53 55 1.7 6.1 0.00 0.95 0.95 90 1006.7
20260506152135 53 65 1.7 6.1 0.00 0.95 0.95 90 1006.8
20260506151935 53 49 1.7 6.1 0.00 0.95 0.95 90 1006.7
20260506151735 52 59 2.6 6.1 0.00 0.95 0.95 90 1006.7
20260506151535 52 55 2.6 6.1 0.00 0.95 0.95 90 1006.7
20260506151335 52 355 1.7 6.1 0.00 0.95 0.95 90 1006.7
20260506151135 52 351 1.7 6.1 0.00 0.95 0.95 90 1006.7
20260506150934 53 42 1.7 7.0 0.00 0.95 0.95 90 1006.7
20260506150732 53 20 2.6 7.0 0.00 0.95 0.95 90 1006.7
20260506150531 53 37 1.7 7.0 0.00 0.95 0.95 90 1006.7
20260506150331 53 43 2.6 7.0 0.00 0.95 0.95 90 1006.7
20260506150130 53 11 2.6 7.0 0.00 0.95 0.95 90 1006.7
20260506145929 53 50 2.6 7.0 0.00 0.95 0.95 90 1006.7
20260506145728 53 5 1.7 5.2 0.00 0.95 0.95 90 1006.6
20260506145529 53 51 1.7 5.2 0.00 0.95 0.95 90 1006.6
20260506145329 53 39 2.6 5.2 0.00 0.95 0.95 90 1006.6
20260506145129 53 0 2.6 5.2 0.00 0.95 0.95 90 1006.6
20260506144929 53 44 1.7 5.2 0.00 0.95 0.95 90 1006.5
20260506144729 53 333 1.7 5.2 0.00 0.95 0.95 89 1006.5
20260506144529 53 315 2.6 6.1 0.00 0.95 0.95 89 1006.6
20260506144329 53 35 1.7 7.0 0.00 0.95 0.95 89 1006.5
20260506144129 53 58 1.7 7.0 0.00 0.95 0.95 89 1006.6
20260506143929 53 53 1.7 7.0 0.00 0.95 0.95 89 1006.6
20260506143729 53 45 1.7 7.0 0.00 0.95 0.95 89 1006.5
20260506143528 53 43 1.7 7.0 0.00 0.95 0.95 89 1006.6
20260506143329 53 15 1.7 4.3 0.00 0.95 0.95 89 1006.6
20260506143129 53 5 1.7 6.1 0.00 0.95 0.95 89 1006.6
20260506142929 53 355 2.6 6.1 0.00 0.95 0.95 89 1006.7
20260506142729 53 11 2.6 6.1 0.00 0.95 0.95 89 1006.6
20260506142527 53 14 2.6 6.1 0.00 0.95 0.95 89 1006.7
20260506142326 53 57 2.6 6.1 0.00 0.95 0.95 89 1006.6
20260506142127 53 340 2.6 5.2 0.00 0.95 0.95 89 1006.6
20260506141927 53 22 2.6 6.1 0.00 0.95 0.95 89 1006.6
20260506141726 53 355 2.6 6.1 0.00 0.95 0.95 88 1006.5
20260506141527 53 58 2.6 6.1 0.00 0.95 0.95 88 1006.5
20260506141325 53 47 2.6 6.1 0.00 0.95 0.95 88 1006.5
20260506141123 53 13 2.6 6.1 0.00 0.95 0.95 88 1006.6
20260506140921 53 290 1.7 6.1 0.00 0.95 0.95 88 1006.6
20260506140721 54 32 1.7 6.1 0.00 0.95 0.95 89 1006.6
20260506140521 54 59 1.7 6.1 0.00 0.95 0.95 89 1006.6
20260506140319 53 26 1.7 6.1 0.00 0.95 0.95 90 1006.7
20260506140119 53 38 2.6 8.7 0.00 0.95 0.95 89 1006.6
20260506135919 53 44 2.6 8.7 0.00 0.95 0.95 89 1006.5
20260506135718 53 65 2.6 8.7 0.00 0.95 0.95 89 1006.6
20260506135523 53 45 2.6 8.7 0.00 0.95 0.95 89 1006.6
20260506135321 53 50 2.6 8.7 0.00 0.95 0.95 89 1006.6
20260506135120 53 73 2.6 8.7 0.00 0.95 0.95 89 1006.6
20260506134917 53 55 1.7 4.3 0.00 0.95 0.95 90 1006.6
20260506134716 53 96 1.7 4.3 0.00 0.95 0.95 90 1006.6
20260506134516 53 17 1.7 4.3 0.00 0.95 0.95 90 1006.5
20260506134317 53 342 1.7 4.3 0.00 0.95 0.95 90 1006.5
20260506133510 53 0 1.7 5.2 0.00 0.95 0.95 91 1006.7
20260506133310 53 47 1.7 5.2 0.00 0.95 0.95 91 1007.0
20260506133111 53 65 2.6 5.2 0.00 0.95 0.95 91 1006.7
20260506132911 52 73 2.6 8.7 0.00 0.95 0.95 91 1006.7
20260506132710 52 62 1.7 8.7 0.00 0.95 0.95 91 1006.7
20260506132508 52 55 1.7 8.7 0.00 0.95 0.95 91 1006.7
20260506132307 52 351 1.7 8.7 0.00 0.95 0.95 91 1006.7
20260506132117 52 54 1.7 8.7 0.00 0.95 0.95 91 1006.7
20260506131907 53 45 0.9 4.3 0.00 0.95 0.95 91 1006.6
20260506131707 53 28 1.7 5.2 0.00 0.95 0.95 91 1006.7
20260506131507 53 52 1.7 7.0 0.00 0.95 0.95 91 1006.7
20260506131304 52 58 2.6 7.8 0.00 0.95 0.95 91 1006.6
20260506131105 52 64 2.6 7.8 0.00 0.95 0.95 91 1006.6
20260506130905 52 77 2.6 7.8 0.00 0.95 0.95 91 1006.6
20260506130704 52 66 2.6 7.8 0.00 0.95 0.95 91 1006.7
20260506130505 53 63 2.6 7.8 0.00 0.95 0.95 91 1006.6
20260506130305 53 19 2.6 7.8 0.00 0.95 0.95 91 1006.6
20260506130105 53 99 3.5 11.3 0.00 0.95 0.95 91 1006.6
20260506125905 53 57 3.5 11.3 0.00 0.95 0.95 91 1006.6
20260506125705 53 52 3.5 11.3 0.00 0.95 0.95 91 1006.6
20260506125505 53 10 3.5 11.3 0.00 0.95 0.95 91 1006.5
20260506125306 53 63 3.5 11.3 0.00 0.95 0.95 91 1006.5
20260506125104 53 80 2.6 7.8 0.00 0.95 0.95 92 1006.4
20260506124905 53 53 2.6 7.8 0.00 0.95 0.95 92 1006.5
20260506124704 53 47 2.6 7.8 0.00 0.95 0.95 92 1006.5
20260506124505 52 22 2.6 7.8 0.00 0.95 0.95 92 1006.5
20260506124305 53 59 2.6 7.8 0.00 0.95 0.95 93 1006.5
20260506124105 52 57 2.6 7.8 0.00 0.95 0.95 92 1006.6
20260506123905 52 24 2.6 7.8 0.00 0.95 0.95 92 1006.6
20260506123704 52 56 1.7 7.0 0.00 0.95 0.95 93 1006.5
20260506123505 52 32 1.7 6.1 0.00 0.95 0.95 92 1006.5
20260506123305 52 65 2.6 7.8 0.00 0.95 0.95 92 1006.5
20260506123104 52 23 2.6 7.8 0.00 0.95 0.95 93 1006.5
20260506122904 52 45 1.7 7.8 0.00 0.95 0.95 93 1006.4
20260506122705 52 9 2.6 7.8 0.00 0.95 0.95 92 1006.5
20260506122505 52 49 1.7 7.8 0.00 0.95 0.95 93 1006.4
20260506122306 52 111 1.7 6.1 0.00 0.95 0.95 93 1006.4
20260506122117 52 355 1.7 5.2 0.00 0.95 0.95 93 1006.4
20260506121905 52 14 1.7 5.2 0.00 0.95 0.95 93 1006.4
20260506121705 52 5 1.7 7.8 0.00 0.95 0.95 93 1006.3
20260506121505 52 344 1.7 7.8 0.00 0.95 0.95 93 1006.4
20260506121305 52 342 1.7 7.8 0.00 0.95 0.95 93 1006.3
20260506121105 52 24 1.7 7.8 0.00 0.95 0.95 93 1006.4
20260506120905 52 61 1.7 7.8 0.00 0.95 0.95 93 1006.3
20260506120704 52 293 2.6 7.8 0.00 0.95 0.95 93 1006.3
20260506120518 52 33 2.6 7.8 0.00 0.95 0.95 93 1006.3
20260506120305 52 53 2.6 7.8 0.00 0.95 0.95 93 1006.3
20260506120105 52 313 2.6 7.8 0.00 0.95 0.95 93 1006.3
20260506115905 52 29 1.7 7.8 0.00 0.95 0.95 93 1006.4
20260506115705 52 306 1.7 7.8 0.00 0.95 0.95 93 1006.3
20260506115504 52 49 1.7 6.1 0.00 0.95 0.95 93 1006.3
20260506115307 52 28 1.7 6.1 0.00 0.95 0.95 93 1006.3
20260506115104 52 26 1.7 6.1 0.00 0.95 0.95 93 1006.2
20260506114904 52 36 1.7 6.1 0.00 0.95 0.95 93 1006.2
20260506114705 52 42 0.9 4.3 0.00 0.95 0.95 93 1006.2
20260506114505 52 351 0.9 4.3 0.00 0.95 0.95 93 1006.2
20260506114305 52 0 0.9 4.3 0.00 0.95 0.95 93 1006.2
20260506114105 53 40 0.9 5.2 0.00 0.95 0.95 94 1006.2
20260506113905 52 37 1.7 5.2 0.00 0.95 0.95 94 1006.1
20260506113704 52 37 1.7 5.2 0.00 0.95 0.95 94 1006.0
20260506113504 52 37 1.7 5.2 0.00 0.95 0.95 94 1006.0
20260506113305 52 5 1.7 5.2 0.00 0.95 0.95 94 1006.0
20260506113105 52 304 1.7 4.3 0.00 0.95 0.95 94 1006.1
20260506112905 52 47 1.7 4.3 0.00 0.95 0.95 94 1006.0
20260506112705 52 0 1.7 4.3 0.00 0.95 0.95 94 1005.9
20260506112504 52 331 1.7 4.3 0.00 0.95 0.95 94 1006.0
20260506112316 52 340 1.7 4.3 0.00 0.95 0.95 94 1005.9
20260506112102 52 46 1.7 4.3 0.00 0.95 0.95 94 1005.9
20260506111502 52 46 2.6 7.0 0.00 0.95 0.95 94 1006.0
20260506111301 52 42 2.6 7.0 0.00 0.95 0.95 94 1005.8
20260506111101 52 71 1.7 7.0 0.00 0.95 0.95 94 1005.7
20260506110901 52 63 1.7 7.0 0.00 0.95 0.95 94 1005.8
20260506110702 52 39 1.7 7.0 0.00 0.95 0.95 94 1005.7
20260506110457 52 65 1.7 7.0 0.00 0.95 0.95 94 1005.7
20260506110257 52 90 1.7 6.1 0.00 0.95 0.95 94 1005.8
20260506110057 52 38 1.7 6.1 0.00 0.95 0.95 94 1005.8
20260506105856 52 38 2.6 7.8 0.00 0.95 0.95 94 1005.7
20260506105657 52 38 2.6 7.8 0.00 0.95 0.95 94 1005.7
20260506105457 52 47 2.6 7.8 0.00 0.95 0.95 94 1005.7
20260506105256 52 355 2.6 7.8 0.00 0.95 0.95 94 1005.7
20260506105057 52 17 2.6 7.8 0.00 0.95 0.95 94 1005.7
20260506104857 52 17 2.6 7.0 0.00 0.95 0.95 94 1005.6
20260506104656 52 336 1.7 7.0 0.00 0.95 0.95 94 1005.7
20260506104457 52 35 1.7 7.0 0.00 0.95 0.95 94 1005.7
20260506104255 52 331 1.7 7.0 0.00 0.95 0.95 94 1005.6
20260506104054 52 0 1.7 7.0 0.01 0.95 0.95 94 1005.7
20260506103853 52 28 1.7 7.0 0.01 0.95 0.95 94 1005.6
20260506103653 52 79 1.7 7.0 0.01 0.95 0.95 94 1005.5
20260506103453 52 330 1.7 7.0 0.01 0.95 0.95 94 1005.5
20260506103252 52 355 1.7 7.8 0.01 0.95 0.95 94 1005.5
20260506103050 52 15 1.7 7.8 0.01 0.95 0.95 94 1005.5
20260506102848 52 53 2.6 7.8 0.01 0.95 0.95 94 1005.5
20260506102648 52 350 2.6 7.8 0.01 0.95 0.95 94 1005.5
20260506102449 52 42 2.6 7.8 0.02 0.95 0.95 94 1005.8
20260506102248 52 46 2.6 7.8 0.02 0.95 0.95 94 1005.4
20260506102047 52 340 2.6 7.8 0.02 0.95 0.95 94 1005.3
20260506101847 52 63 2.6 7.8 0.02 0.95 0.95 94 1005.3
20260506101646 52 34 1.7 7.8 0.02 0.95 0.95 94 1005.4
20260506101446 52 69 1.7 7.8 0.02 0.95 0.95 95 1005.4
20260506101246 52 11 2.6 6.1 0.03 0.95 0.95 95 1005.4
20260506101046 52 68 2.6 8.7 0.03 0.95 0.95 94 1005.4
20260506100846 52 5 2.6 8.7 0.03 0.95 0.95 94 1005.4
20260506100647 51 38 2.6 8.7 0.04 0.95 0.95 94 1005.3
20260506100446 51 63 2.6 8.7 0.04 0.95 0.95 94 1005.4
20260506100248 52 75 2.6 8.7 0.04 0.95 0.95 94 1005.4
20260506100047 52 41 2.6 7.8 0.05 0.95 0.95 95 1005.4
20260506095847 52 55 2.6 7.8 0.05 0.95 0.95 95 1005.3
20260506095645 51 5 2.6 7.8 0.06 0.95 0.95 95 1005.3
20260506095443 51 56 2.6 7.8 0.06 0.95 0.95 94 1005.2
20260506095241 51 20 1.7 6.1 0.07 0.95 0.95 95 1005.2
20260506095041 51 66 1.7 6.1 0.08 0.95 0.95 95 1005.2
20260506094841 51 43 1.7 4.3 0.09 0.95 0.95 94 1005.2
20260506094640 51 57 1.7 8.7 0.09 0.95 0.95 95 1005.2
20260506094441 51 24 1.7 8.7 0.10 0.95 0.95 95 1005.2
20260506094240 51 51 1.7 8.7 0.11 0.95 0.94 95 1005.2
20260506094040 51 18 2.6 8.7 0.11 0.94 0.94 94 1005.2
20260506093841 51 14 2.6 8.7 0.12 0.94 0.94 95 1005.2
20260506093642 51 11 1.7 6.1 0.12 0.94 0.94 95 1005.1
20260506093438 51 9 2.6 6.1 0.13 0.94 0.94 94 1005.1
20260506093236 51 340 2.6 5.2 0.13 0.94 0.94 95 1005.2
20260506093036 51 355 2.6 6.1 0.13 0.94 0.94 94 1005.2
20260506092836 51 319 2.6 6.1 0.14 0.94 0.94 95 1005.0
20260506092634 51 306 1.7 6.1 0.14 0.94 0.94 95 1005.1
20260506092434 51 355 1.7 6.1 0.14 0.94 0.94 95 1005.1
20260506092235 51 27 1.7 6.1 0.14 0.94 0.94 94 1005.1
20260506092036 51 32 1.7 4.3 0.15 0.94 0.94 95 1005.1
20260506091833 51 60 1.7 4.3 0.14 0.93 0.93 94 1005.1
20260506091632 51 343 1.7 4.3 0.15 0.93 0.93 95 1005.1
20260506091433 51 329 1.7 5.2 0.16 0.93 0.92 95 1005.0
20260506091034 51 33 1.7 5.2 0.16 0.92 0.92 95 1005.0
20260506090830 50 53 1.7 5.2 0.17 0.92 0.91 94 1005.0
20260506090630 50 355 2.6 7.8 0.17 0.91 0.91 94 1005.0
20260506090433 50 327 2.6 7.8 0.17 0.91 0.91 94 1005.0
20260506090231 50 44 2.6 7.8 0.18 0.91 0.91 94 1005.1
20260506090030 50 59 2.6 7.8 0.18 0.91 0.91 94 1005.0
20260506085830 50 346 2.6 7.8 0.18 0.91 0.90 94 1005.0
20260506085629 50 41 1.7 5.2 0.18 0.90 0.89 94 1005.0
20260506085431 50 16 1.7 5.2 0.17 0.89 0.88 94 1004.9
20260506085229 50 13 1.7 5.2 0.17 0.88 0.88 94 1005.0
20260506085028 50 49 1.7 5.2 0.17 0.87 0.87 94 1005.1
20260506084828 50 328 1.7 5.2 0.17 0.87 0.86 94 1005.0
20260506084628 50 35 1.7 7.0 0.16 0.86 0.86 94 1005.0
20260506084429 50 17 1.7 7.0 0.16 0.85 0.85 94 1005.0
20260506084228 50 9 1.7 7.0 0.16 0.84 0.84 94 1005.0
20260506084027 50 55 1.7 7.0 0.15 0.83 0.83 94 1005.1
20260506083822 50 350 1.7 7.0 0.15 0.83 0.83 94 1005.1
20260506083623 50 355 1.7 5.2 0.15 0.83 0.82 94 1005.0
20260506083422 50 24 1.7 7.0 0.15 0.82 0.82 94 1005.0
20260506083222 50 30 1.7 7.0 0.15 0.81 0.81 94 1005.0
20260506083022 50 355 2.6 7.0 0.15 0.81 0.81 94 1005.0
20260506082822 50 348 2.6 7.0 0.15 0.80 0.80 94 1005.0
20260506082622 50 47 2.6 7.0 0.15 0.80 0.80 94 1004.9
20260506082422 50 24 2.6 7.0 0.15 0.80 0.80 94 1005.0
20260506082222 50 11 1.7 7.0 0.16 0.80 0.79 94 1005.0
20260506082022 50 76 1.7 7.0 0.16 0.79 0.79 94 1004.9
20260506081822 50 87 1.7 7.0 0.15 0.78 0.78 94 1005.0
20260506081620 50 355 1.7 7.0 0.16 0.78 0.78 94 1005.0
20260506081420 50 15 2.6 7.0 0.16 0.77 0.77 94 1004.9
20260506081220 50 351 2.6 7.0 0.17 0.77 0.76 94 1005.0
20260506081021 50 36 1.7 5.2 0.16 0.76 0.76 94 1004.9
20260506080821 50 11 2.6 6.1 0.16 0.76 0.76 94 1005.0
20260506080618 50 23 1.7 6.1 0.15 0.75 0.75 94 1005.0
20260506080418 50 348 1.7 6.1 0.15 0.74 0.74 94 1005.0
20260506080218 50 26 0.9 6.1 0.14 0.73 0.73 94 1005.0
20260506073411 50 355 1.7 4.3 0.09 0.67 0.67 94 1004.7
20260506073207 50 329 1.7 4.3 0.09 0.66 0.66 94 1004.7
20260506073006 50 338 1.7 6.1 0.09 0.66 0.66 94 1004.7
20260506072804 50 317 1.7 6.1 0.08 0.65 0.65 94 1004.7
20260506072604 50 19 0.9 6.1 0.08 0.65 0.65 94 1004.7
20260506072405 50 71 0.9 6.1 0.08 0.65 0.65 94 1004.6
20260506072204 50 71 1.7 6.1 0.07 0.64 0.64 94 1004.6
20260506072004 50 5 1.7 10.4 0.06 0.63 0.63 94 1004.5
20260506071804 50 5 1.7 10.4 0.06 0.63 0.62 94 1004.6
20260506071605 50 21 2.6 10.4 0.06 0.62 0.62 94 1004.5
20260506071407 50 22 2.6 10.4 0.05 0.61 0.61 94 1004.5
20260506071205 50 50 1.7 10.4 0.05 0.61 0.61 94 1004.4
20260506071002 50 46 1.7 6.1 0.05 0.61 0.60 94 1004.5
20260506070801 50 54 1.7 5.2 0.04 0.60 0.60 94 1004.5
20260506070602 50 34 1.7 7.8 0.04 0.60 0.59 94 1004.4
20260506070404 50 44 1.7 7.8 0.03 0.59 0.59 94 1004.5
20260506070202 50 46 1.7 7.8 0.04 0.59 0.59 94 1004.5
20260506062358 50 28 1.7 7.0 0.03 0.57 0.57 94 1004.3
20260506062158 50 67 1.7 7.0 0.03 0.57 0.57 94 1004.3
20260506062000 50 44 1.7 7.0 0.03 0.57 0.57 94 1004.3
20260506061800 50 81 1.7 7.0 0.03 0.57 0.57 94 1004.4
20260506061601 50 65 2.6 5.2 0.04 0.57 0.57 94 1004.4
20260506061354 50 5 2.6 8.7 0.04 0.57 0.57 94 1004.4
20260506061157 50 75 2.6 8.7 0.03 0.56 0.56 94 1004.4
20260506060952 50 53 3.5 8.7 0.04 0.56 0.56 94 1004.4
20260506060752 50 77 2.6 8.7 0.04 0.56 0.56 94 1004.4
20260506060552 50 69 2.6 8.7 0.04 0.56 0.56 94 1004.4
20260506060352 50 338 2.6 7.8 0.04 0.56 0.56 94 1004.4
20260506060152 50 26 1.7 7.8 0.04 0.55 0.55 94 1004.5
20260506051340 50 55 0.9 4.3 0.09 0.54 0.53 94 1004.6
20260506051140 50 26 1.7 3.5 0.09 0.54 0.52 94 1004.6
20260506050941 50 16 0.9 3.5 0.09 0.54 0.52 94 1004.6
20260506050738 50 14 1.7 3.5 0.09 0.55 0.52 94 1004.6
20260506050537 50 5 1.7 3.5 0.09 0.55 0.52 94 1004.6
20260506050337 49 38 1.7 3.5 0.10 0.55 0.51 94 1004.6
20260506050138 49 55 1.7 4.3 0.10 0.55 0.51 94 1004.6
20260506044938 49 24 1.7 7.0 0.13 0.59 0.50 94 1004.7
20260506044738 49 30 1.7 7.0 0.13 0.60 0.49 94 1004.7
20260506044537 49 21 1.7 7.0 0.13 0.60 0.49 94 1004.8
20260506044337 49 21 1.7 7.0 0.13 0.60 0.49 94 1004.9
20260506044138 49 72 1.7 7.0 0.13 0.60 0.48 94 1004.8
20260506043941 49 51 2.6 5.2 0.14 0.61 0.48 94 1004.7
20260506043743 49 39 2.6 5.2 0.14 0.61 0.47 94 1004.9
20260506043539 49 53 2.6 7.0 0.15 0.62 0.46 94 1004.7
20260506043334 49 47 2.6 7.0 0.14 0.63 0.46 94 1004.8
20260506043133 49 5 2.6 7.0 0.14 0.63 0.46 94 1004.9
20260506042934 49 69 2.6 7.0 0.14 0.65 0.46 94 1004.9
20260506042732 49 30 2.6 7.0 0.15 0.68 0.45 94 1004.8
20260506042532 49 69 1.7 5.2 0.15 0.72 0.45 94 1004.9
20260506042330 49 22 1.7 5.2 0.15 0.79 0.45 94 1004.9
20260506042129 49 46 2.6 7.0 0.16 0.83 0.44 94 1004.9
20260506041930 49 34 2.6 7.0 0.17 0.87 0.44 94 1004.9
20260506041730 49 33 2.6 7.0 0.17 0.89 0.44 94 1004.9
20260506041530 49 80 2.6 7.0 0.18 0.93 0.44 94 1004.9
20260506041329 49 32 2.6 7.0 0.18 0.94 0.43 94 1004.9
20260506041130 49 46 2.6 5.2 0.19 0.94 0.43 94 1004.9
20260506040929 49 5 2.6 6.1 0.20 0.94 0.43 94 1004.9
20260506040729 49 30 1.7 6.1 0.20 0.94 0.43 94 1004.9
20260506040529 49 13 2.6 6.1 0.20 0.94 0.42 94 1004.9
20260506040329 49 49 2.6 6.1 0.20 0.94 0.41 94 1005.0
20260506035933 49 42 2.6 7.8 0.21 0.94 0.40 94 1005.0
20260506035734 49 22 2.6 7.8 0.20 0.94 0.39 94 1004.9